This demonstration page uses our WeatherBlox Daily Observations layout. Learn more.

Left ArrowRight Arrow

Hourly Observations for April 5, 2021

Temp ( °F °C ) Dew Point ( °F °C ) Humidity (%) Winds ( mph kmh ) Pressure ( in mb ) Visibility ( mi km ) Precip ( " mm )
12:53 am 00:53 Clear 56 13.3 46 7.8 70 70 N 3 6 30.01 1016 10 16 0.00 0.00
1:53 am 01:53 Clear 55 12.8 46 7.8 72 72 Calm 30.01 1016 10 16 0.00 0.00
2:53 am 02:53 Clear 54 12.2 47 8.3 77 77 Calm 30.00 1016 10 16 0.00 0.00
3:53 am 03:53 Clear 53 11.7 46 7.8 77 77 W 3 6 30.00 1016 10 16 0.00 0.00
4:53 am 04:53 Clear 52 11.1 47 8.3 83 83 Calm 30.00 1016 10 16 0.00 0.00
5:53 am 05:53 Clear 53 11.7 45 7.2 74 74 SSW 6 9 30.00 1016 10 16 0.00 0.00
6:53 am 06:53 Partly Cloudy 53 11.7 44 6.7 72 72 SW 7 11 30.01 1016 10 16 0.00 0.00
7:53 am 07:53 Cloudy 52 11.1 44 6.7 75 75 SE 3 6 30.04 1017 10 16 0.00 0.00
8:53 am 08:53 Partly Cloudy 54 12.2 44 6.7 69 69 SSE 5 7 30.05 1018 10 16 0.00 0.00
9:53 am 09:53 Sunny 55 12.8 45 7.2 69 69 ESE 3 6 30.06 1018 10 16 0.00 0.00
10:53 am 10:53 Sunny 58 14.4 45 7.2 62 62 VRB 5 7 30.05 1018 10 16 0.00 0.00
11:53 am 11:53 Sunny 61 16.1 46 7.8 58 58 S 8 13 30.02 1017 10 16 0.00 0.00
12:53 pm 12:53 Sunny 65 18.3 46 7.8 51 51 Calm 29.99 1016 10 16 0.00 0.00
1:53 pm 13:53 Sunny 67 19.4 45 7.2 45 45 SW 3 6 29.97 1015 10 16 0.00 0.00
2:53 pm 14:53 Sunny 70 21.1 43 6.1 38 38 SE 5 7 29.95 1014 10 16 0.00 0.00
3:53 pm 15:53 Sunny 71 21.7 40 4.4 32 32 SSE 5 7 29.91 1013 10 16 0.00 0.00
4:53 pm 16:53 Sunny 72 22.2 39 3.9 30 30 VRB 5 7 29.89 1012 10 16 0.00 0.00
5:53 pm 17:53 Sunny 72 22.2 38 3.3 29 29 SE 5 7 29.88 1012 10 16 0.00 0.00
6:53 pm 18:53 Sunny 70 21.1 41 5 35 35 SSE 7 11 29.88 1012 10 16 0.00 0.00
7:53 pm 19:53 Clear 64 17.8 42 5.6 45 45 S 7 11 29.89 1012 10 16 0.00 0.00
8:53 pm 20:53 Clear 64 17.8 41 5 43 43 S 5 7 29.91 1013 10 16 0.00 0.00
9:53 pm 21:53 Clear 59 15 43 6.1 56 56 Calm 29.93 1014 10 16 0.00 0.00
10:53 pm 22:53 Clear 55 12.8 43 6.1 64 64 NNE 5 7 29.94 1014 10 16 0.00 0.00
11:53 pm 23:53 Clear 54 12.2 43 6.1 67 67 Calm 29.95 1014 10 16 0.00 0.00

Powered by AerisWeather